This is the latest recevied weather packets stored in our database for station/object EA4BCR. If no packets are shown the sender has not sent any weather packets the latest 10 day(s).
| Time | Temp. | Humidity | Pressure | Rain* | Wind** | Luminosity | Snow |
|---|---|---|---|---|---|---|---|
| 1787961616 | 16.11° C | 43% | 1020.7 hPa | - | - | - | - |
| 1787961016 | 16.11° C | 42% | 1020.8 hPa | - | - | - | - |
| 1787960416 | 16.11° C | 42% | 1020.8 hPa | - | - | - | - |
| 1787959816 | 16.67° C | 42% | 1020.6 hPa | - | - | - | - |
| 1787959216 | 16.67° C | 42% | 1020.8 hPa | - | - | - | - |
| 1787958616 | 16.67° C | 40% | 1020.8 hPa | - | - | - | - |
| 1787958016 | 16.67° C | 40% | 1020.5 hPa | - | - | - | - |
| 1787957416 | 17.22° C | 39% | 1020.3 hPa | - | - | - | - |
| 1787956817 | 18.33° C | 39% | 1020.1 hPa | - | - | - | - |
| 1787956216 | 18.33° C | 39% | 1019.9 hPa | - | - | - | - |
| 1787955616 | 18.89° C | 38% | 1019.7 hPa | - | - | - | - |
| 1787955016 | 18.89° C | 39% | 1019.9 hPa | - | - | - | - |
| 1787954416 | 18.33° C | 37% | 1019.8 hPa | - | - | - | - |
| 1787953816 | 18.89° C | 37% | 1019.7 hPa | - | - | - | - |
| 1787953216 | 18.89° C | 36% | 1019.6 hPa | - | - | - | - |
| 1787952616 | 19.44° C | 37% | 1019.5 hPa | - | - | - | - |
| 1787952016 | 19.44° C | 36% | 1019.4 hPa | - | - | - | - |
| 1787951416 | 19.44° C | 38% | 1019.4 hPa | - | - | - | - |
| 1787950816 | 19.44° C | 35% | 1019.3 hPa | - | - | - | - |
| 1787950216 | 20° C | 35% | 1019.2 hPa | - | - | - | - |
| 1787949616 | 20° C | 34% | 1018.9 hPa | - | - | - | - |
| 1787949016 | 20.56° C | 33% | 1018.8 hPa | - | - | - | - |
| 1787948416 | 20.56° C | 32% | 1018.7 hPa | - | - | - | - |
| 1787947816 | 20.56° C | 31% | 1018.5 hPa | - | - | - | - |
| 1787947216 | 21.11° C | 32% | 1018.3 hPa | - | - | - | - |
* Rain since midnight (hover to see other rain measurements)
** Current wind speed in m/s (hover to see current wind gust speed)